Location: Monroe
(41.9160°N, 83.3980°W)
Time: 19:14:36
(UTC-05:00)

ISS - All Passes

Search period start: 19 December 2014 00:00
Search period end: 29 December 2014 00:00
Orbit: 404 x 415 km, 51.6° (Epoch: 19 December)

Date Brightness Start Highest point End Pass type
(mag) Time Alt. Az. Time Alt. Az. Time Alt. Az.
19 Dec - 14:43:08 10° SW 14:46:26 74° SE 14:49:43 10° ENE daylight
19 Dec - 16:20:35 10° WNW 16:23:18 23° NNW 16:26:00 10° NE daylight
19 Dec - 17:58:45 10° NW 18:00:45 15° N 18:02:45 10° NE visible
19 Dec - 19:35:18 10° NW 19:38:09 27° NNE 19:41:00 10° E visible
19 Dec - 21:11:42 10° WNW 21:14:54 51° SW 21:18:04 10° SE night (unlit)
20 Dec - 13:52:40 10° SSW 13:55:46 39° SE 13:58:53 10° ENE daylight
20 Dec - 15:29:25 10° W 15:32:24 31° NNW 15:35:24 10° NE daylight
20 Dec - 17:07:41 10° NW 17:09:45 15° N 17:11:48 10° NE daylight
20 Dec - 18:44:41 10° NW 18:47:14 20° NNE 18:49:47 10° ENE visible
20 Dec - 20:20:54 10° NW 20:24:12 85° NE 20:27:28 10° SE visible
20 Dec - 21:59:19 10° WSW 22:00:18 11° SW 22:01:17 10° SSW night (unlit)
21 Dec - 13:02:32 10° S 13:05:08 22° SE 13:07:44 10° E daylight
21 Dec - 14:38:19 10° WSW 14:41:31 47° NNW 14:44:44 10° NE daylight
21 Dec - 16:16:26 10° NW 16:18:42 17° N 16:20:57 10° NNE daylight
21 Dec - 17:53:57 10° NNW 17:56:13 17° N 17:58:29 10° NE visible
21 Dec - 19:30:10 10° NW 19:33:23 49° NNE 19:36:34 10° ESE visible
21 Dec - 21:07:14 10° W 21:09:44 20° SW 21:12:12 10° S night (unlit)
22 Dec - 12:13:11 10° SSE 12:14:31 12° SE 12:15:51 10° ESE daylight
22 Dec - 13:47:21 10° WSW 13:50:39 81° NW 13:53:58 10° NE daylight
22 Dec - 15:25:05 10° WNW 15:27:38 20° NNW 15:30:10 10° NE daylight
22 Dec - 17:03:03 10° NW 17:05:07 15° N 17:07:10 10° NE daylight
22 Dec - 18:39:26 10° NW 18:42:26 32° NNE 18:45:25 10° E visible
22 Dec - 20:15:59 10° WNW 20:19:02 36° SW 20:22:04 10° SSE visible
23 Dec - 12:56:34 10° SW 12:59:48 55° SE 13:03:03 10° ENE daylight
23 Dec - 14:33:42 10° W 14:36:33 26° NNW 14:39:24 10° NE daylight
23 Dec - 16:11:56 10° NW 16:13:57 15° N 16:15:58 10° NE daylight
23 Dec - 17:48:40 10° NW 17:51:23 23° NNE 17:54:06 10° ENE visible
23 Dec - 19:24:57 10° WNW 19:28:14 70° SW 19:31:28 10° SE visible
24 Dec - 12:06:04 10° SSW 12:08:59 29° SE 12:11:54 10° ENE daylight
24 Dec - 13:42:22 10° W 13:45:29 37° NNW 13:48:35 10° NE daylight
24 Dec - 15:20:36 10° NW 15:22:44 16° N 15:24:52 10° NNE daylight
24 Dec - 16:57:49 10° NNW 17:00:14 19° NNE 17:02:39 10° ENE daylight
24 Dec - 18:34:01 10° NW 18:37:17 65° NNE 18:40:32 10° ESE visible
24 Dec - 20:11:33 10° W 20:13:30 15° SW 20:15:26 10° SSW visible
25 Dec - 11:16:01 10° S 11:18:10 16° SE 11:20:20 10° E daylight
25 Dec - 12:51:09 10° WSW 12:54:25 61° NNW 12:57:42 10° NE daylight
25 Dec - 14:29:06 10° WNW 14:31:30 18° NNW 14:33:53 10° NNE daylight
25 Dec - 16:06:50 10° NNW 16:09:00 16° N 16:11:09 10° NE daylight
25 Dec - 17:43:06 10° NW 17:46:14 39° NNE 17:49:20 10° E visible
25 Dec - 19:19:52 10° WNW 19:22:41 27° SW 19:25:30 10° SSE visible
26 Dec - 12:00:05 10° SW 12:03:23 76° SE 12:06:41 10° ENE daylight
26 Dec - 13:37:32 10° WNW 13:40:14 23° NNW 13:42:56 10° NE daylight
26 Dec - 15:15:39 10° NW 15:17:41 15° N 15:19:42 10° NE daylight
26 Dec - 16:52:11 10° NW 16:55:03 27° NNE 16:57:55 10° E daylight
26 Dec - 18:28:34 10° WNW 18:31:46 50° SW 18:34:56 10° SE visible
27 Dec - 11:09:15 10° SSW 11:12:22 40° SE 11:15:29 10° ENE daylight
27 Dec - 12:46:00 10° W 12:48:59 31° NNW 12:51:58 10° NE daylight
27 Dec - 14:24:15 10° NW 14:26:18 15° N 14:28:22 10° NE daylight
27 Dec - 16:01:12 10° NW 16:03:46 21° NNE 16:06:20 10° ENE daylight
27 Dec - 17:37:24 10° NW 17:40:42 86° NE 17:43:58 10° SE visible
27 Dec - 19:15:52 10° WSW 19:16:47 11° SW 19:17:41 10° SW visible
28 Dec - 10:18:46 10° S 10:21:22 22° SE 10:23:59 10° E daylight
28 Dec - 11:54:32 10° WSW 11:57:44 47° NNW 12:00:57 10° NE daylight
28 Dec - 13:32:38 10° NW 13:34:54 17° N 13:37:09 10° NNE daylight
28 Dec - 15:10:07 10° NNW 15:12:23 17° N 15:14:40 10° NE daylight
28 Dec - 16:46:19 10° NW 16:49:32 49° NNE 16:52:43 10° ESE daylight
28 Dec - 18:23:22 10° W 18:25:51 20° SW 18:28:19 10° S visible
